SCP
0 0 0 0 0 1 1 0 0 0 0 0 0 0 0 0 0 0 1 2 3 2 1 1 1 1 1 1 1 1 1 1 1 1 1 1 1 1 0 0 0 0 0 0 0 0 0 0 0
0 0 0 0 0 0 0 0 0 0 0 0 0 0 0 0 0 0 1 2 3 2 1 1 1 1 1 1 1 1 1 1 1 1 1 1 1 1 1 0 0 0 0 0 0 0 0 0 0
0 0 0 0 0 0 0 0 0 0 0 0 0 0 0 0 0 0 1 2 2 2 1 1 1 1 1 1 1 1 1 1 1 1 1 1 1 1 1 1 0 0 0 0 0 0 0 0 0
0 0 0 0 0 0 0 0 0 0 0 0 1 1 0 0 0 0 1 2 2 2 2 1 1 1 1 1 1 1 1 1 1 1 1 1 1 1 1 1 1 1 1 1 1 1 1 1 0
0 0 0 0 0 0 0 0 0 0 0 0 1 1 1 0 0 1 1 2 2 3 2 2 2 2 1 1 1 1 1 1 1 1 1 1 1 1 1 1 1 1 1 1 1 1 1 1 1
0 0 0 0 0 0 0 0 0 0 0 1 1 1 1 0 0 1 1 2 2 3 3 2 2 2 2 2 2 2 1 1 1 1 1 1 1 1 1 1 1 1 1 1 1 1 1 1 1
0 0 0 0 0 0 0 0 0 0 1 1 1 1 1 1 0 1 1 1 3 4 4 3 2 2 2 2 2 2 2 1 1 1 1 1 1 1 1 1 1 2 2 2 1 1 1 1 2
0 0 0 0 0 0 0 0 0 1 1 2 2 2 2 1 1 1 1 1 2 3 3 3 2 2 2 2 2 2 2 2 2 2 2 1 1 1 1 1 2 2 2 2 2 2 2 2 2
0 0 0 0 0 0 0 0 0 1 2 2 3 3 2 2 1 1 1 2 2 3 3 3 3 3 3 3 3 3 3 2 2 2 2 2 2 2 1 2 2 2 2 3 3 3 3 2 2
-0 -0 0 0 0 0 0 0 0 1 3 3 4 3 3 3 3 3 3 4 4 4 4 5 5 5 4 4 4 4 3 3 3 3 3 3 3 2 2 2 3 3 3 3 3 3 3 3 2
0 0 0 0 0 0 0 0 1 2 4 5 5 5 5 5 6 7 7 8 8 7 7 6 7 7 7 5 4 4 3 4 4 4 4 4 4 3 3 3 4 4 3 3 3 3 3 2 2
0 0 0 0 0 0 0 1 2 3 5 6 6 7 8 9 9 10 11 11 11 11 9 7 7 8 7 6 4 4 4 4 4 4 5 5 5 4 4 4 4 4 4 4 3 3 3 2 2
0 0 0 0 0 0 0 1 2 3 4 6 7 9 11 11 11 12 12 13 13 12 9 7 7 7 6 5 4 4 5 5 5 5 5 5 5 4 4 4 4 4 4 4 3 3 2 2 2
0 0 0 0 0 0 1 2 2 3 4 6 7 9 10 12 12 13 13 13 12 11 9 7 6 6 5 4 3 4 4 5 5 5 5 5 5 4 4 4 4 4 3 3 3 2 2 2 2
0 0 0 0 0 0 1 2 2 2 3 4 6 7 8 10 12 12 11 11 10 8 7 7 6 5 5 4 3 3 3 4 4 5 5 5 5 5 4 3 3 3 2 2 2 2 2 2 2
0 0 0 0 0 0 1 1 2 2 2 3 4 4 5 7 8 7 7 6 6 5 5 6 5 5 4 4 4 3 3 3 3 4 4 5 5 4 4 3 3 3 2 2 1 1 1 1 1
0 0 0 0 0 0 1 1 1 2 2 2 2 2 3 4 4 3 3 3 3 3 4 4 4 4 4 3 3 3 3 2 3 3 4 4 4 3 3 3 3 2 2 2 1 1 1 1 1
0 0 0 0 0 1 1 1 1 1 2 2 2 2 2 2 2 2 2 2 2 3 3 3 3 3 3 3 3 3 3 3 3 3 4 4 3 3 3 3 3 3 2 2 1 1 1 1 1
0 0 0 1 1 1 1 1 1 1 2 2 1 1 2 1 1 1 1 1 1 2 2 2 2 2 2 2 3 3 3 3 3 3 3 3 3 3 3 3 3 3 2 2 1 1 1 1 1
0 0 0 1 1 1 1 1 1 1 1 1 1 1 1 1 1 1 1 1 1 1 2 2 2 2 2 2 2 2 3 3 3 3 3 2 2 2 3 4 4 3 3 2 2 1 1 1 1
0 0 0 1 1 1 1 1 1 1 1 1 1 1 1 1 1 1 1 1 1 1 1 2 2 3 3 2 2 2 2 2 2 2 2 2 2 2 2 3 3 3 3 2 2 1 1 1 1
0 0 0 0 0 1 1 1 2 1 1 1 1 1 1 1 1 1 1 1 1 1 1 2 3 4 4 3 2 1 1 1 1 2 2 1 1 1 1 2 2 3 3 3 2 2 2 1 1
0 0 0 0 0 0 1 1 1 1 1 1 1 1 1 1 1 1 1 1 1 1 1 2 2 3 3 3 1 1 1 1 1 1 1 1 1 1 1 1 1 2 3 3 3 3 2 2 2
0 0 0 0 0 0 0 1 1 1 2 2 1 1 1 1 1 1 1 1 1 1 1 1 1 2 2 1 1 0 0 0 1 1 1 1 1 1 1 1 1 1 2 2 3 3 3 3 2
0 0 0 1 1 0 0 1 1 1 1 1 1 1 1 1 1 1 0 0 0 0 0 0 0 0 0 0 0 0 0 0 0 0 0 0 0 0 1 1 1 1 1 2 2 3 3 3 3
0 0 0 0 0 0 1 1 1 1 1 1 1 1 1 0 0 0 0 0 0 0 0 0 0 0 0 0 0 0 0 0 0 0 0 0 0 0 0 1 1 1 1 1 1 2 2 3 3
0 0 0 0 0 0 1 1 1 1 1 0 0 0 0 0 0 0 0 0 0 0 0 0 0 0 0 0 0 0 0 0 0 0 0 0 0 0 0 1 1 1 1 1 1 1 1 2 2
0 0 0 0 0 0 0 1 1 0 0 0 0 0 0 0 0 0 0 0 0 0 0 0 0 0 0 0 0 0 0 0 0 0 0 0 0 0 0 0 1 1 1 1 1 1 1 1 1
0 0 0 0 0 0 0 0 0 0 0 0 0 0 0 0 0 0 0 0 0 0 0 0 0 0 0 0 0 0 0 0 0 0 0 0 0 0 0 0 0 0 1 1 1 1 1 1 1
0 0 0 0 0 0 0 0 0 0 0 0 0 0 0 0 0 0 0 0 0 0 0 0 0 0 0 0 0 0 0 0 0 0 0 0 0 0 0 0 0 0 0 1 1 1 1 1 1
Wind_Speed
13 13 11 8 7 7 5 6 10 9 9 9 7 9 18 15 12 9 10 18 23 20 18 17 15 14 13 12 11 11 11 11 11 11 11 11 10 10 9 8 7 7 6 6 7 7 8 8 8
13 13 11 8 8 7 2 9 10 8 6 3 6 12 17 15 12 11 12 18 22 19 17 15 16 14 13 12 11 11 11 11 11 11 11 11 10 10 9 8 7 7 6 6 6 7 8 8 8
13 15 9 8 12 5 7 10 9 5 4 3 9 13 12 10 11 10 13 18 21 18 16 17 17 15 13 12 11 10 10 10 11 10 11 10 10 10 9 8 8 7 7 7 7 7 8 8 8
9 10 8 11 16 2 6 8 8 6 6 3 10 12 9 7 9 13 14 19 20 17 17 17 16 15 13 12 11 10 9 9 9 9 9 9 9 9 9 8 8 8 8 8 8 7 8 8 7
11 8 12 15 16 4 6 5 5 5 5 6 14 14 11 11 14 14 14 19 18 18 17 16 16 15 13 12 11 10 10 9 9 9 9 9 9 9 9 9 9 9 9 9 8 8 8 9 8
8 9 12 13 9 3 5 7 7 6 9 8 13 15 10 11 12 12 13 14 17 19 17 15 15 14 13 12 11 11 10 10 10 10 10 10 10 10 10 11 10 10 9 9 9 9 8 9 8
10 12 15 18 15 4 6 6 9 9 11 8 8 12 11 11 10 11 11 10 15 20 18 14 13 12 12 12 11 11 11 10 10 10 10 10 10 10 10 11 11 11 11 11 10 10 10 9 9
10 11 17 17 16 3 9 6 8 7 9 11 14 8 12 12 10 11 9 9 11 15 16 13 13 12 11 11 12 12 11 11 10 11 11 11 11 11 11 10 11 12 12 12 12 12 11 11 11
14 12 15 17 11 6 7 7 7 5 13 14 13 14 14 12 11 9 9 9 7 8 11 10 12 12 11 11 13 13 12 11 10 10 12 11 9 10 11 14 15 16 15 14 14 13 13 12 13
13 12 17 16 10 8 8 5 5 4 11 11 9 12 11 10 9 8 8 8 7 5 6 8 7 6 3 3 8 7 8 8 9 8 9 8 7 7 10 14 19 19 17 16 16 15 14 12 9
15 16 17 17 12 8 8 5 4 6 10 11 8 8 8 8 6 6 7 6 8 8 9 9 9 7 6 4 3 3 3 5 8 9 7 6 6 5 5 2 7 10 13 9 10 11 9 9 8
18 15 16 14 11 9 7 5 6 12 11 12 10 8 9 9 10 11 12 12 12 12 11 11 10 9 8 6 3 2 2 2 3 5 6 5 4 4 4 3 2 4 4 6 6 5 8 9 9
14 14 14 13 10 8 5 2 8 13 11 12 13 13 13 12 13 15 15 14 13 12 11 10 9 7 6 5 4 5 4 3 3 2 3 4 4 4 4 4 3 4 4 4 6 6 7 8 8
13 13 10 8 7 5 3 3 8 10 9 11 11 12 13 14 14 14 14 13 12 11 11 9 7 7 5 4 4 3 4 3 3 1 1 2 3 4 4 4 4 4 4 4 4 6 6 6 6
12 13 13 9 6 5 7 6 9 9 9 9 9 9 10 11 12 12 11 11 11 10 10 8 6 7 5 5 5 4 3 3 2 1 1 1 2 3 3 3 4 3 3 4 4 6 6 7 7
15 14 12 0 3 5 8 8 8 7 9 9 8 7 8 9 10 9 9 9 9 9 8 8 8 8 5 3 3 3 3 3 2 1 1 1 1 2 2 3 3 3 3 3 4 5 6 7 6
9 9 5 9 10 8 6 11 9 8 10 10 8 7 7 7 8 8 8 9 8 8 7 6 7 8 7 6 5 4 3 2 2 1 1 1 2 2 2 3 3 3 3 4 5 4 5 5 6
4 4 2 5 8 8 8 11 10 8 9 10 9 8 8 8 8 8 8 9 8 7 6 6 6 6 7 6 5 4 4 4 3 1 3 3 3 3 3 3 4 4 4 4 4 5 4 3 4
8 11 12 11 3 1 7 11 11 10 10 10 10 10 10 10 9 8 8 9 8 6 5 4 5 5 4 4 5 4 4 4 3 1 3 3 4 5 4 4 3 4 5 6 6 4 4 4 5
10 9 1 5 5 5 5 9 8 7 8 10 11 11 12 11 9 7 7 7 7 5 3 4 4 4 5 4 5 5 5 5 4 2 1 1 3 4 5 4 4 4 4 6 6 5 3 4 5
9 12 8 3 8 12 5 5 7 5 5 7 10 10 11 10 9 6 4 4 4 4 3 4 3 3 5 5 5 6 5 5 4 4 3 1 2 4 4 4 4 5 4 4 6 6 6 5 4
5 9 13 7 4 4 4 2 6 8 7 8 9 8 9 7 6 3 2 4 5 6 5 4 5 5 6 6 7 9 8 7 7 6 5 6 5 5 4 3 4 4 5 4 5 5 5 5 5
3 6 6 15 15 7 7 4 5 9 9 9 10 9 8 6 3 1 2 4 5 6 5 4 5 5 5 6 7 8 8 7 7 8 9 8 7 7 6 4 2 3 4 4 5 5 4 4 5
14 6 10 13 9 6 4 5 6 10 12 11 9 8 5 3 1 1 2 3 4 5 4 4 4 4 4 6 6 7 8 7 9 10 9 8 5 5 5 4 3 2 2 3 4 5 5 5 5
14 8 2 2 2 8 11 6 3 10 10 10 8 5 3 1 2 2 4 5 4 4 4 4 5 5 5 5 5 6 7 8 9 9 7 8 7 6 6 6 2 2 2 3 4 4 5 5 5
9 8 6 8 4 3 8 3 7 10 9 6 3 2 1 3 4 6 7 6 5 6 5 5 5 5 5 5 6 6 7 6 6 8 9 9 7 7 8 7 5 4 4 5 4 4 5 4 4
9 11 12 10 9 4 7 9 8 6 6 3 3 3 4 6 7 8 9 9 7 7 5 5 5 5 5 6 6 6 5 6 7 7 8 8 7 9 9 9 8 7 6 6 6 5 6 5 4
8 9 8 8 8 9 6 8 5 5 6 8 8 7 7 8 9 10 10 10 9 8 6 6 5 5 5 6 6 8 6 6 6 8 8 8 8 8 8 9 9 8 8 7 7 6 7 7 6
8 9 9 9 9 7 6 8 8 5 5 7 7 8 9 9 10 10 10 9 9 9 8 7 6 6 6 6 6 6 7 7 7 7 7 7 7 8 8 9 9 9 9 9 8 8 8 8 7
3 5 7 7 8 7 7 7 3 3 5 6 7 8 9 9 9 10 10 9 9 10 10 9 8 8 7 7 6 7 7 7 8 9 8 8 8 8 9 9 9 10 10 9 9 10 11 10 9
Wind_Direction
181 192 205 221 238 237 282 29 38 32 44 47 45 52 65 50 47 76 91 102 113 123 133 139 139 139 135 131 129 133 142 150 152 150 149 148 146 145 143 140 139 139 136 131 130 127 123 119 116
191 198 210 235 242 251 13 35 33 40 48 41 65 66 74 65 73 93 100 114 119 126 139 140 141 141 140 137 134 134 140 147 150 150 149 149 150 151 151 151 152 156 154 151 149 142 136 133 131
220 226 244 247 253 275 21 26 14 33 73 57 80 64 57 70 82 99 120 126 124 130 134 134 146 145 145 143 140 138 139 142 147 149 150 152 155 158 160 162 166 171 174 170 164 159 152 150 148
228 226 239 252 270 1 47 27 352 23 71 22 92 85 76 56 92 113 136 129 122 130 130 139 147 147 148 148 147 146 144 145 148 152 157 162 166 170 173 176 182 186 187 178 171 169 165 164 162
240 255 245 259 269 42 58 37 345 11 93 77 91 97 94 89 102 128 143 125 133 134 130 142 148 149 152 154 156 158 158 159 162 165 170 175 180 185 188 191 194 197 192 181 176 176 174 175 177
249 252 266 282 293 74 53 30 9 27 47 48 105 110 104 117 126 138 133 138 138 129 132 140 150 153 157 161 166 170 172 175 177 181 184 189 194 199 203 204 203 204 200 190 185 186 188 189 191
257 276 286 291 298 315 69 22 19 44 57 14 49 107 120 130 130 131 136 142 131 128 132 146 153 158 164 171 178 182 185 187 190 193 197 200 204 208 211 212 211 209 204 199 196 199 202 203 204
265 286 287 282 282 320 72 32 32 18 72 38 27 75 124 132 136 128 137 124 113 125 135 150 159 159 170 179 188 192 196 198 201 205 208 211 215 218 219 217 215 213 208 206 207 211 212 211 212
262 268 273 280 315 357 37 20 10 14 74 58 43 61 106 127 125 130 127 117 106 117 130 151 155 159 178 183 182 190 200 206 210 215 220 221 223 219 216 222 214 214 215 215 216 218 219 217 217
239 258 270 293 334 330 340 351 327 352 67 61 63 78 100 119 124 133 129 131 135 118 97 81 90 127 157 179 160 184 199 197 210 217 209 213 230 241 232 213 213 213 216 219 221 223 225 223 223
243 255 279 298 317 319 309 318 27 5 51 27 45 91 107 102 105 105 105 110 112 94 62 63 62 60 50 57 123 188 204 196 207 223 216 215 231 255 272 258 211 212 217 223 226 224 226 227 227
246 255 276 289 299 296 288 297 61 55 43 26 39 70 87 80 69 66 69 65 71 67 61 51 49 45 34 27 5 266 242 206 212 211 217 215 224 246 267 275 243 211 214 223 237 229 225 233 235
258 253 259 271 277 275 263 234 87 67 50 45 48 51 58 64 67 66 66 64 60 56 51 46 43 45 29 13 340 340 330 311 274 216 215 220 225 238 249 269 274 259 250 240 239 246 241 238 240
278 280 271 264 270 262 212 132 99 82 71 62 57 54 54 57 56 58 56 55 53 49 44 35 35 40 27 357 333 306 297 299 307 304 310 261 242 234 237 249 257 257 258 265 269 268 261 251 244
260 262 257 232 216 177 162 116 91 97 100 90 77 64 60 60 61 58 56 56 53 51 43 25 36 39 24 354 338 323 312 326 329 328 307 267 246 232 222 228 238 238 248 267 276 274 270 258 245
258 249 248 296 312 171 193 116 101 123 115 104 99 89 78 70 70 70 68 64 60 56 51 36 30 24 8 356 324 321 335 340 322 311 300 288 268 237 228 230 231 217 220 233 246 250 258 256 251
275 316 356 15 330 269 185 124 131 135 124 120 119 111 102 95 87 83 83 78 71 62 56 54 44 18 358 3 349 350 345 339 317 322 3 348 307 280 249 233 227 210 215 226 241 241 246 261 258
14 355 13 234 240 245 125 119 132 142 136 132 132 129 119 105 96 98 101 99 90 81 64 48 56 29 356 10 350 357 356 350 333 7 40 8 337 319 289 257 233 216 220 226 227 241 240 251 266
233 208 198 197 207 11 131 141 151 156 151 138 133 125 117 110 109 110 110 110 107 100 90 74 50 34 360 14 339 333 339 333 315 351 55 10 357 339 306 292 264 231 229 231 231 224 231 234 241
281 289 202 93 20 304 199 142 130 152 138 134 132 131 128 122 116 118 123 115 105 96 89 88 53 26 4 4 313 308 330 314 301 9 6 358 8 333 324 329 299 273 248 239 234 225 226 239 230
324 333 316 223 193 227 210 128 131 140 126 132 126 124 124 125 123 121 107 89 77 68 55 56 48 25 15 349 327 338 326 311 315 333 306 351 332 302 303 316 317 309 288 256 241 228 223 236 252
342 305 298 301 239 237 173 179 183 163 174 157 138 139 131 126 128 108 50 39 24 19 17 39 44 39 23 4 348 337 323 321 328 330 328 330 310 285 273 278 313 324 315 304 277 243 231 231 244
239 241 347 12 0 0 38 29 222 169 184 170 157 154 142 141 123 92 347 9 9 3 1 23 50 45 29 6 347 337 331 332 326 325 314 308 298 277 255 228 237 303 310 331 323 316 278 246 242
329 336 29 28 15 344 246 214 206 176 173 162 156 149 144 149 246 287 331 359 16 359 354 360 16 22 11 349 332 326 327 324 315 302 292 293 291 293 294 262 196 231 294 331 323 313 297 279 265
302 304 7 21 167 235 225 217 174 124 128 134 139 145 153 210 276 327 356 352 353 348 355 355 357 359 349 331 322 325 318 307 294 299 318 327 322 318 313 311 248 234 260 281 283 288 288 284 276
283 322 335 318 301 172 161 178 96 94 94 97 100 97 295 305 342 351 345 350 356 354 357 354 353 344 337 329 324 315 296 298 315 331 327 313 302 297 300 315 308 276 254 256 261 275 277 270 266
342 348 342 323 329 3 125 122 108 112 119 91 14 338 333 357 354 348 356 357 357 357 0 357 351 341 334 325 313 297 309 332 324 313 302 302 309 311 317 320 309 295 277 258 250 252 265 270 260
351 353 358 338 352 349 69 99 108 103 32 10 351 349 2 358 354 357 353 347 352 351 356 358 352 342 331 322 322 326 334 319 313 313 308 303 299 299 303 302 297 290 283 269 252 245 249 243 238
359 17 4 347 1 344 352 77 88 49 14 360 351 358 358 356 354 347 344 348 348 346 347 347 342 335 330 331 334 330 323 320 313 303 302 308 310 309 303 301 298 293 286 278 266 252 249 250 245
9 24 4 354 345 319 323 97 78 19 36 27 5 0 4 0 349 344 346 347 344 341 340 336 337 332 335 336 331 324 320 315 312 311 313 309 305 304 302 299 297 293 288 282 275 264 254 242 239